Regional Weather Roundup
Issued by NWS

Home | Current Version | Previous Version | Graphics & Text | Print | Product List | Glossary On
Versions: 1 2 3 4 5 6 7 8 9 10 11 12 13 14 15 16 17 18 19 20 21 22 23 24 25 26 27 28 29 30 31 32 33 34 35 36 37 38 39 40 41 42 43 44 45 46 47 48 49 50
646
ASUS43 KIND 031709
RWRIN

WEATHER ROUNDUP FOR INDIANA
NATIONAL WEATHER SERVICE INDIANAPOLIS IN
100 PM EDT TUE MAY 03 2016

NOTE: "FAIR" INDICATES FEW OR NO CLOUDS BELOW 12,000 FEET WITH NO
SIGNIFICANT WEATHER AND/OR OBSTRUCTIONS TO VISIBILITY.

* - STATION DOES NOT REPORT WEATHER SUCH AS PRECIPITATION OR FOG.

+ - STATION NOT QUALITY CONTROLLED BY THE NATIONAL WEATHER SERVICE.
    USE DATA WITH CAUTION...ESPECIALLY DEWPOINT AND RELATIVE
    HUMIDITY OBSERVATIONS.

INZ001>003-010>013-019-020-031800-
NORTHWEST INDIANA

CITY           SKY/WX    TMP DP  RH WIND       PRES   REMARKS
GARY /AIRPORT/ MOSUNNY   64  43  45 N5        29.94F
KNOX *+        MOSUNNY   61  30  31 N7        29.94F
LA PORTE +     SUNNY     62  37  38 W5        29.94F
MICHIGAN CITY+ SUNNY     61  37  41 W6        29.94F
MONTICELLO +   PTSUNNY   60  38  43 CALM      29.95S
RENSSELAER +   SUNNY     61  36  39 N7        29.95F
VALPARAISO     SUNNY     62  35  36 W5        29.94F

$$

LMZ046-743>745-031800-
SOUTHERN LAKE MICHIGAN

STATION/POSITION TIME  TEMP    WIND        PRES    WAVE
                       AIR SEA DIR/SP/G            HT
                 (UTC) (F)     (DEG/KT/KT) (MB)    (FT)
BURNS HARBOR     1600   53        CALM     1014.9F
MICHIGAN CITY    1600   49     210/  2/  3   N/A

$$

INZ004-005-014>016-021>024-031800-
NORTH CENTRAL INDIANA

CITY           SKY/WX    TMP DP  RH WIND       PRES   REMARKS
ELKHART        MOSUNNY   61  45  55 CALM      29.93F
GOSHEN         PTSUNNY   60  43  53 W6        29.92F
LOGANSPORT +   CLOUDY    55  45  67 N5        29.96S
PERU/GRISSOM   PTSUNNY   55  48  76 NW2       29.93F
ROCHESTER +    PTSUNNY   59  46  63 SW3       29.94F
SOUTH BEND     SUNNY     60  40  47 NW7       29.93F
WARSAW +       PTSUNNY   59  43  55 N6        29.93F

$$

INZ006>009-017-018-025>027-031800-
NORTHEAST INDIANA

CITY           SKY/WX    TMP DP  RH WIND       PRES   REMARKS
ANGOLA *+      MOSUNNY   61  41  48 W6        29.90
AUBURN +       MOSUNNY   59  41  51 CALM      29.92F
FORT WAYNE     PTSUNNY   57  44  62 NW5       29.93F
HUNTINGTON +   CLOUDY    55  44  65 CALM      29.94S

$$

INZ028-029-035-036-043>045-051>053-031800-
WEST CENTRAL INDIANA

CITY           SKY/WX    TMP DP  RH WIND       PRES   REMARKS
CRAWFORDSVL +  CLOUDY    56  45  66 NW8       29.96F
GREENCASTLE +  CLOUDY    54  46  76 N10       29.96F
LAFAYETTE      SUNNY     59  40  49 N10       29.95F
TERRE HAUTE    MOSUNNY   61  44  53 N15       29.97F

$$

INZ030>032-037>040-046>048-054>057-064-065-031800-
CENTRAL INDIANA

CITY           SKY/WX    TMP DP  RH WIND       PRES   REMARKS
ANDERSON       CLOUDY    54  46  76 N6        29.96S
COLUMBUS       LGT RAIN  54  54 100 NW14      29.95S FOG
FISHERS *+     CLOUDY    54  50  87 N7        29.95
FRANKFORT +      N/A     56  40  54 NW6       29.97F
GREENWOOD *+   CLOUDY    52  50  93 NW5       29.96S
INDIANAPOLIS   LGT RAIN  52  48  86 N8        29.95S
-EAGLE CREEK   CLOUDY    53  49  86 NW9       29.95S
KOKOMO *+      PTSUNNY   55  46  71 N6        29.94F
MARION +       CLOUDY    52  47  83 CALM      29.95F
SHELBYVILLE    CLOUDY    56  48  74 N8        29.94S
ZIONSVILLE +   LGT RAIN  50  48  92 NE8       29.96S

$$

INZ033-034-041-042-049-050-058-059-031800-
EAST CENTRAL INDIANA

CITY           SKY/WX    TMP DP  RH WIND       PRES   REMARKS
MUNCIE         CLOUDY    55  46  71 N5        29.94S

$$

INZ060-061-067>069-081>083-085>088-031800-
SOUTHWEST INDIANA

CITY           SKY/WX    TMP DP  RH WIND       PRES   REMARKS
EVANSVILLE     CLOUDY    59  44  57 NW7       29.99F
HUNTINGBURG *+ CLOUDY    61  48  63 NW9       29.97S
WASHINGTON +   CLOUDY    55  49  80 NW8       29.97S

$$

INZ062-063-066-070>080-084-089>092-031800-
SOUTH CENTRAL AND SOUTHEAST INDIANA

CITY           SKY/WX    TMP DP  RH WIND       PRES   REMARKS
BLOOMINGTON    LGT RAIN  54  48  80 N7        29.96S
MADISON *+     CLOUDY    57  48  72 W9        29.94F
SEYMOUR +      CLOUDY    55  54  94 NW12      29.95S

$$





USA.gov is the U.S. government's official web portal to all federal, state and local government web resources and services.